Regional Weather Roundup
Issued by NWS Lake Charles, LA

Home | Current Version | Previous Version | Text Only | Print | Product List | Glossary On
Versions: 1 2 3 4 5 6 7 8 9 10 11 12 13 14 15 16 17 18 19 20 21 22 23 24 25 26 27
000
ASUS44 KLCH 232010
RWRLCH
RWRLCH
REGIONAL WEATHER ROUNDUP
NATIONAL WEATHER SERVICE LAKE CHARLES LA
300 PM CDT THU OCT 23 2014

Note: "fair" indicates few or no clouds below 12,000 feet with no
significant weather and/or obstructions to visibility.


ACROSS SOUTHEAST TEXAS

CITY           SKY/WX    TMP DP  RH WIND       PRES   REMARKS
BEAUMONT       MOSUNNY   77  54  44 VRB7      30.06F
BEAUMONT CITY    N/A     74  52  44 NE5       30.07F
ORANGE         PTCLDY    72  53  50 NE6       30.09F
JASPER         MOSUNNY   71  49  46 NW3       30.11F
$$

ACROSS CENTRAL LOUISIANA

CITY           SKY/WX    TMP DP  RH WIND       PRES   REMARKS
LEESVILLE      PTSUNNY   70  51  51 NW5       30.08F
FULLERTON        N/A     74  50  42 VRB5      30.06F
ALEXANDRIA INT CLOUDY    70  47  43 N9        30.08F
ESLER FIELD    CLOUDY    67  50  54 VRB6      30.09F
DERIDDER         N/A     71  51  49 CALM      30.10F
OAKDALE        MOCLDY    69  52  53 NW6       30.09S
OPELOUSAS        N/A     69  52  55 N7        30.06F
$$

ACROSS SOUTHWEST AND SOUTH CENTRAL LOUISIANA

CITY           SKY/WX    TMP DP  RH WIND       PRES   REMARKS
SULPHUR        MOCLDY    73  53  48 N8        30.08F
LAKE CHARLES   CLOUDY    74  52  46 N12       30.07F
CHENNAULT INT  MOSUNNY   72  54  53 N9        30.08F
CAMERON PHI    CLEAR     73  54  49 N3        30.09F
DEQUINCY         N/A     70  53  55 N5        30.08F
JENNINGS         N/A     71  52  51 N9        30.06F
LAFAYETTE      PTSUNNY   74  48  39 N9        30.05F
NEW IBERIA     MOSUNNY   77  50  38 N9        30.06F
ABBEVILLE        N/A     74  48  40 N6        30.05F
PATTERSON      MOSUNNY   75  52  43 N9        30.06F
SALT POINT       N/A     76  51  41 N5        30.03F
$$

SELECTED SITES ACROSS THE REGION

CITY           SKY/WX    TMP DP  RH WIND       PRES   REMARKS
HOUSTON BUSH   MOSUNNY   79  54  41 NE13      30.07F
HOUSTON HOBBY  MOSUNNY   78  52  40 N8        30.06F
GALVESTON      PTSUNNY   76  62  62 N8        30.07F
COLLEGE STAT   MOSUNNY   79  55  43 N6        30.09F
CONROE         SUNNY     77  52  41 CALM      30.08F
HUNTSVILLE     SUNNY     76  53  44 VRB6      30.09F
LUFKIN         MOSUNNY   77  53  43 N7        30.10F
SHREVEPORT     MOSUNNY   70  47  43 NE3       30.12F
MONROE         CLOUDY    67  47  48 N7        30.13S
NATCHEZ MS     CLOUDY    66  46  48 N6        30.10F
BATON ROUGE    MOSUNNY   76  47  35 VRB3      30.05F
N.O. INTL ARPT MOSUNNY   73  45  36 N10       30.04F
SLIDELL        SUNNY     75  45  34 N6        30.04F
$$

MARINE REPORTS

STATION/POSITION TIME  TEMP    WIND        PRES    VSBY  WAVE
                       AIR SEA DIR/SP/G                  HT/PER
                 (UTC) (F)     (DEG/KT/KT) (MB)    (MI)  (FT/S)
BUOY 30 S HIGH I 2000   72 78   40/  8/ 12 1017.6F         3/ 7
SEA RIM ST PARK  2000   73      10/  5/  7 1018.5F
PORT ARTHUR      2000      75   20/  4/  7 1018.2F
SABINE PASS N    2000   73 73  360/  8/ 10 1018.2F
TEXAS POINT      2000   72 73  110/  5/  5 1018.1F
CALCASIEU PASS   2000   71 72   10/  5/  7   N/A
LK CHARLES BEACH 2000   71 76              1018.4F
MARSH ISLAND     NOT AVBL
FRESH WATER LOCK 2000   74 74  320/  5/ 12 1017.4F
AMERADA PASS     2000   74 71   80/  3/  5 1016.9F
$$



USA.gov is the U.S. government's official web portal to all federal, state and local government web resources and services.